This is the latest recevied weather packets stored in our database for station/object SA3PJN-WX. If no packets are shown the sender has not sent any weather packets the latest 10 day(s).
| Time | Temp. | Humidity | Pressure | Rain* | Wind** | Luminosity | Snow |
|---|---|---|---|---|---|---|---|
| 1778144290 | 10.56° C | 53% | 971.5 hPa | - | - | - | - |
| 1778143990 | 10° C | 52% | 971.3 hPa | - | - | - | - |
| 1778143690 | 10° C | 53% | 971.3 hPa | - | - | - | - |
| 1778143389 | 10.56° C | 52% | 971.4 hPa | - | - | - | - |
| 1778143090 | 10.56° C | 53% | 971.2 hPa | - | - | - | - |
| 1778142789 | 10° C | 54% | 971.2 hPa | - | - | - | - |
| 1778142490 | 9.44° C | 56% | 971.1 hPa | - | - | - | - |
| 1778142189 | 10° C | 55% | 971.2 hPa | - | - | - | - |
| 1778141889 | 10° C | 57% | 971.1 hPa | - | - | - | - |
| 1778141589 | 9.44° C | 57% | 971.1 hPa | - | - | - | - |
| 1778141259 | 9.44° C | 57% | 971.1 hPa | - | - | - | - |
| 1778140959 | 9.44° C | 56% | 971.1 hPa | - | - | - | - |
| 1778140629 | 9.44° C | 60% | 971.1 hPa | - | - | - | - |
| 1778140329 | 8.89° C | 58% | 971 hPa | - | - | - | - |
| 1778140029 | 9.44° C | 60% | 971 hPa | - | - | - | - |
| 1778139729 | 9.44° C | 58% | 971.1 hPa | - | - | - | - |
| 1778139429 | 10° C | 57% | 970.9 hPa | - | - | - | - |
| 1778139129 | 10° C | 58% | 970.9 hPa | - | - | - | - |
| 1778138829 | 9.44° C | 59% | 970.9 hPa | - | - | - | - |
| 1778138529 | 9.44° C | 57% | 970.8 hPa | - | - | - | - |
| 1778138229 | 10° C | 57% | 970.8 hPa | - | - | - | - |
| 1778137929 | 9.44° C | 59% | 970.9 hPa | - | - | - | - |
| 1778137629 | 8.89° C | 58% | 970.9 hPa | - | - | - | - |
| 1778137329 | 7.78° C | 58% | 970.7 hPa | - | - | - | - |
| 1778137029 | 7.78° C | 60% | 970.8 hPa | - | - | - | - |
* Rain since midnight (hover to see other rain measurements)
** Current wind speed in m/s (hover to see current wind gust speed)